If you wish to contribute or participate in the discussions about articles you are invited to join SKYbrary as a registered user

 Actions

Angel S Adami Airport

From SKYbrary Wiki

SUAA
Airport
ICAO: SUAA
Summary
Name Angel S Adami Airport
Region
Territory Uruguay UY.gif
Location , Montevideo
Serving Montevideo
Elevation 53.035 m
174 ft
174 ft53.035 m
Type medium airport
Coordinates 34° 47' 21.15" S, 56° 15' 52.93" W
Runways
Designator Length Width Surface ROPS
18/36 1250 m4,101.05 ft
23 m75.459 ft
CON /


METAR
Observation SUAA 212100Z 36005KT 9999 FEW030 SCT070 BKN200 33/22 Q1011
Station Melilla
Date/Time 21 February 2019 21:00:00
Wind direction 360°
Wind speed 05 kts
Lowest cloud amount few clouds
Temperature 33°C
Dew point 22°C
Humidity 52%
QNH 1011 hPa
Weather condition n/a